Torna al catalogo

COSMOS 1818 COOLANT

LostLEO
NORAD 50790·DEBRIS·🇷🇺 Russia

Lanciato Feb 1, 1987 da Baikonur Cosmodrome

Loading…

Prossimi Passaggi (prossime 24 ore)

TLE

ObsoletoSource: Space-Track

Epoca: Sep 7, 2022, 01:01 UTC

1 50790U 87011BF  22250.04246707  .00000326  00000-0  15032-3 0  9994
2 50790  65.0044 106.0999 0013846 254.3863 181.3675 14.34677136583839

Traccia COSMOS 1818 COOLANT in tempo reale con AllMySat

Download on the App Store